Preview of NWS' New Version of Forecast
This preview is not operational and should not be used for support decisions.

Regional Weather Roundup (RWR)

Issued by National Weather Service (NWS)

                            
000
ASUS43 KDTX 200810
RWRMI 
MICHIGAN HOURLY REGIONAL WEATHER ROUNDUP
NATIONAL WEATHER SERVICE DETROIT/PONTIAC MI
400 AM EDT WED MAR 20 2019

NOTE: "FAIR" INDICATES FEW OR NO CLOUDS BELOW 12,000 FEET WITH NO
SIGNIFICANT WEATHER AND/OR OBSTRUCTION TO VISIBILITY.

MIZ047>049-052>055-059>063-066>070-074>076-081>083-200900-
SOUTHEAST LOWER MICHIGAN
  
CITY           SKY/WX    TMP DP  RH WIND       PRES   REMARKS
ADRIAN         FAIR      31  24  75 CALM      30.25F                  
ALMA           FAIR      32  20  61 S6        30.18F WCI  26          
ANN ARBOR      FAIR      24  23  96 CALM      30.24F FOG              
BAD AXE        FAIR      32  23  70 S7        30.18F WCI  25          
CARO           FAIR      28  21  74 CALM      30.19F                  
DETROIT CITY   FAIR      31  22  69 S6        30.25F WCI  25          
DETROIT        FAIR      32  22  66 S6        30.25F WCI  26          
FLINT          FAIR      33  23  66 S7        30.21F WCI  27          
GROSSE ILE     FAIR      34  26  71 SW5       30.24F WCI  30          
HILLSDALE      FAIR      33  24  69 S6        30.21F WCI  27          
HOWELL         FAIR      33  24  69 S6        30.21F WCI  27          

CITY           SKY/WX    TMP DP  RH WIND       PRES   REMARKS
JACKSON        FAIR      32  25  75 S7        30.21F WCI  26          
LAMBERTVILLE   FAIR      32  26  80 S5        30.25F WCI  27          
LANSING        FAIR      32  24  72 S7        30.21F WCI  26          
LAPEER         FAIR      32  25  74 S5        30.21F WCI  27          
MASON          FAIR      32  27  81 S3        30.21F                  
MONROE         FAIR      31  28  88 S5        30.25F WCI  27          
MT. CLEMENS    FAIR      31  26  81 S6        30.22F WCI  26          
PONTIAC        FAIR      34  24  67 SW6       30.21F WCI  29          
PORT HOPE        N/A     33  22  63 SW5       30.16F WCI  29          
PORT HURON     FAIR      28  27  93 S3        30.24F                  
TRI CITIES     FAIR      32  21  64 S8        30.18F WCI  25          
MIDLAND        FAIR      33  19  58 S3        30.16F                  
TROY           FAIR      34  23  64 SW5       30.25F WCI  30          
SAGINAW HB     FAIR      34  25  69 S8        30.18F WCI  27          
$$
MIZ043>046-050>051-056>058-064>065-071>073-077>080-200900-
SOUTHWEST LOWER MICHIGAN
  
CITY           SKY/WX    TMP DP  RH WIND       PRES   REMARKS
BATTLE CREEK   FAIR      33  24  69 S8        30.20F WCI  26          
BENTON HARBOR  FAIR      38  25  59 S6        30.19F WCI  33          
BIG RAPIDS     FAIR      31  23  72 S3        30.13F                  
COLDWATER      FAIR      36  26  65 S6        30.21F WCI  31          
FREMONT        FAIR      32  22  66 S3        30.15F                  
HOLLAND        FAIR      34  25  69 S8        30.18F WCI  27          
GRAND RAPIDS   FAIR      32  22  66 S9        30.18F WCI  24          
IONIA          FAIR      35  23  62 S12       30.18F WCI  26          
KALAMAZOO      FAIR      33  25  72 S7        30.20F WCI  27          
LUDINGTON      FAIR      39  28  64 SW15G21   30.11F WCI  31          
MARSHALL       FAIR      33  26  75 CALM      30.21F                  
MOUNT PLEASANT FAIR      32  17  52 S3        30.16F                  
MUSKEGON       FAIR      39  27  62 S15       30.16F WCI  31          
SOUTH HAVEN    FAIR      37  25  63 S5        30.19F WCI  33          
$$
MIZ016>042-200900-
NORTHERN LOWER MICHIGAN
  
CITY           SKY/WX    TMP DP  RH WIND       PRES   REMARKS
ALPENA         FAIR      32  18  56 S7        30.10F WCI  26          
BEAVER ISLAND  CLOUDY    37  29  72 SW14G23   30.02F WCI  29          
BELLAIRE       CLOUDY    36  22  56 CALM      30.08F                  
CADILLAC       FAIR      30  22  73 SW6       30.08F WCI  24          
CHARLEVOIX     CLOUDY    37  24  58 S9G18     30.08F WCI  31          
FRANKFORT      CLOUDY    42  27  55 S14G21    30.08F                  
GAYLORD        MOCLDY    31  18  58 S8        30.06F WCI  23          
GRAYLING         N/A     33  20  60 SW8       30.08F WCI  26          
HARBOR SPRINGS CLOUDY    37  24  59 SW7       30.05F WCI  31          
HOUGHTON LAKE  FAIR      30  18  60 S7        30.11F WCI  23          
MANISTEE       MOCLDY    30  24  78 CALM      30.10F                  
OSCODA         FAIR      27  21  79 SW6       30.15F WCI  20          
PELLSTON       CLOUDY    38  23  55 SW12G20   30.04F WCI  30          
ROGERS CITY    CLOUDY    33  21  60 SW10      30.07F WCI  25          
TRAVERSE CITY  CLOUDY    37  23  56 S8        30.07F WCI  31          
$$
MIZ007>008-015-200900-
EASTERN UPPER MICHIGAN
  
CITY           SKY/WX    TMP DP  RH WIND       PRES   REMARKS
KINROSS        CLOUDY    36  25  64 SW7       30.01F WCI  30          
MACKINAC ISLAN CLOUDY    37  25  63 SW7       30.02F WCI  31          
NEWBERRY       CLOUDY    35  31  86 S13       29.97F WCI  26          
S. S. MARIE    CLOUDY    32  24  72 E6        30.00F WCI  26          
MUNISING         N/A     38  25  59 S12       29.94F WCI  30          
$$
MIZ004>006-011>014-085-200900-
CENTRAL UPPER MICHIGAN
  
CITY           SKY/WX    TMP DP  RH WIND       PRES   REMARKS
MANISTIQUE     CLOUDY    34  29  82 S7        29.98F WCI  28          
ESCANABA       CLOUDY    35  29  78 S6        29.98F WCI  30          
MENOMINEE      CLOUDY    39  26  59 SW8       30.02F WCI  33          
SAWYER-GWINN   CLOUDY    37  27  66 SW9       29.91F WCI  31          
$$
MIZ001>003-009>011-084-200900-
WESTERN UPPER MICHIGAN
  
CITY           SKY/WX    TMP DP  RH WIND       PRES   REMARKS
IRON MOUNTAIN  CLOUDY    38  29  70 SW7       29.94F WCI  33          
HOUGHTON       CLOUDY    39  26  59 W13       29.85F WCI  31          
COPPER HARBOR    N/A     40  32  73 NW7G20    29.86F                  
IRONWOOD       CLOUDY    37  29  72 SW12      29.89F WCI  29          
$$

ABBREVIATIONS USED IN REMARKS
   TC - TEMPERATURE IN CELSIUS
  WCI - WIND CHILL INDEX
   HX - HEAT INDEX
  VSB - VISIBILITY